ABS-6

Last updated on Sun Jun 21 2026 00:03:03 GMT+0000 (Coordinated Universal Time)

1 25924U 99053A 26171.46287499 .00000000 00000+0 00000+0 0 9992 2 25924 0.0231 32.5750 0003808 75.7645 125.9850 1.00269039 97876
UTC large
Height (km)
Speed (km/s)
/
Latitude / Longitude
Inclination (degrees)
Orbital Period (minutes)
Azimuth
Elevation
Range (km)
Doppler Factor

Next 0 passes for location: London (51.5072 / 0.1276)

No passes found over London.
ABS-6